Main page
METAR-TAF:

METAR-TAF

Airports :

Aghajari, Iran

latitude: 30-46N, longitude: 049-40E, elevation: 29 m

Current weather observation

The report was made 1 hour and 28 minutes ago, at 05:00 UTC
Wind 2 kt from the Northwest
Temperature 9°C
Humidity 87%
Pressure 1019 hPa
Visibility: 5000 m
Scattered clouds at a height of 4000 ft
mist

METAR: OIAG 230500Z 32002KT 5000 BR SCT040 09/07 Q1019

Time: 09:58 (06:28 UTC)


TAF: missing

Weather observations and forecasts of more than 4000 airports (METAR and TAF reports).

The available stations are represented by yellow and red dots on the map.

Hover mouse over dot to see the name of the station.

Then click to see weather observations and forecasts.

To change the map : click on the green buttons with a black cross to zoom in, on the green button with a dash to zoom out, or on the green arrows for adjacent maps.


METAR-TAF: